[[{"header":{"parameterUnit":"m.s-1","parameterCategory":1,"la1":30.2991,"la2":30.254,"lo1":-89.0895,"lo2":-89.0444,"dy":0.0017,"dx":0.0017,"nx":28,"ny":28,"refTime":"2025-12-22T03:00:00:Z","depth":0,"parameterNumber":2,"parameterNumberName":"U-component_of_WINDS"},"data":[0,0,0,0,0,0,0,0,0,0,0,0,0,0,0,0,0,0,0,0,0,0,0,0,0,0,0,0,0,0,0,0,0,0,0,0,0,0,0,0,0,0,0,0,0,0,0,0,0,0,0,0,0,0,0,0,0,0,-3.5542,-3.5543,0,-3.5596,-3.5597,-3.5598,-3.5592,-3.5591,-3.559,-3.5589,-3.5645,-3.5647,-3.5649,0,0,0,0,0,0,0,0,0,0,0,0,0,-3.5434,-3.5436,-3.5542,-3.5543,-3.5543,-3.5596,-3.5597,-3.5598,-3.5592,-3.5591,-3.559,-3.5589,-3.5644,-3.5647,-3.5649,0,0,0,0,0,0,0,0,0,0,0,0,0,-3.5484,-3.5437,-3.5542,-3.5547,-3.5548,-3.5596,-3.5597,-3.5598,-3.5592,-3.5591,-3.5589,-3.5588,-3.5643,-3.5646,-3.565,-3.5697,0,0,-3.566,-3.5662,0,0,0,0,0,0,0,0,-3.5481,-3.5488,-3.5545,-3.5547,-3.5548,-3.5586,-3.5579,-3.5631,-3.5592,-3.5575,-3.5589,-3.5587,-3.5626,-3.5631,-3.5644,-3.5699,-3.5702,-3.5661,-3.5663,-3.5664,-3.5665,0,0,0,0,0,0,0,-3.5478,-3.5486,-3.5564,-3.5546,-3.5548,-3.5547,-3.5552,-3.5589,-3.5607,-3.5577,-3.5576,-3.5583,-3.5627,-3.5641,-3.5645,-3.5703,-3.566,-3.5663,-3.5666,-3.5667,-3.5802,-3.5803,0,0,0,0,0,0,-3.5473,-3.5483,-3.5562,-3.5565,-3.5511,-3.555,-3.5556,-3.5575,-3.5607,-3.561,-3.5584,-3.5582,-3.5635,-3.5641,-3.5647,-3.5705,-3.5664,-3.5667,-3.5669,-3.58,-3.5802,-3.5804,0,0,0,0,0,0,-3.5471,-3.548,-3.556,-3.5524,-3.5534,-3.5553,-3.5574,-3.5577,-3.5591,-3.5612,-3.5616,-3.5595,-3.5635,-3.5642,-3.5685,-3.5707,-3.5669,-3.5672,-3.5798,-3.5801,-3.5803,-3.5821,0,0,0,0,0,0,-3.5468,-3.5479,-3.5497,-3.5524,-3.5536,-3.5596,-3.5576,-3.5579,-3.5597,-3.5595,-3.5623,-3.5627,-3.5634,-3.568,-3.5688,-3.5711,-3.5675,-3.5796,-3.5799,-3.5802,-3.5819,-3.5824,-3.5828,0,0,0,0,0,-3.5464,-3.55,-3.5498,-3.5507,-3.5558,-3.5597,-3.5604,-3.5611,-3.5598,-3.5617,-3.5631,-3.5626,-3.5704,-3.5684,-3.5694,-3.5718,-3.5795,-3.5798,-3.5802,-3.5816,-3.5823,-3.5828,0,0,0,0,0,0,-3.5473,-3.5503,-3.5501,-3.5547,-3.557,-3.5596,-3.5619,-3.5618,-3.5644,-3.5642,-3.565,-3.5657,-3.57,-3.5713,-3.5691,-3.5766,-3.5748,-3.5753,-3.5755,-3.5762,-3.5766,-3.5762,-3.5677,0,0,0,0,0,-3.5481,-3.551,-3.5535,-3.5572,-3.5584,-3.56,-3.5617,-3.5621,-3.5645,-3.5654,-3.5672,-3.5695,-3.5725,-3.5744,-3.5773,-3.5821,-3.5828,-3.5843,-3.5847,-3.5851,-3.5855,-3.5883,-3.589,-3.5815,-3.5815,-3.5815,0,0,-3.5496,-3.5516,-3.5534,-3.5575,-3.5593,-3.5623,-3.5608,-3.564,-3.5663,-3.5659,-3.5701,-3.5715,-3.5741,-3.5787,-3.5809,-3.58,-3.5878,-3.5855,-3.5858,-3.5861,-3.5888,-3.5895,-3.5901,-3.5817,-3.5817,-3.5816,0,0,-3.554,-3.5558,-3.5592,-3.5611,-3.5639,-3.565,-3.5658,-3.5685,-3.5694,-3.5736,-3.5735,-3.5762,-3.5813,-3.5833,-3.5849,-3.5903,-3.59,-3.5913,-3.5937,-3.5964,-3.597,-3.5975,-3.5995,-3.6002,-3.5917,-3.5917,-3.5917,0,-3.5556,-3.5601,-3.561,-3.5643,-3.5662,-3.5661,-3.5696,-3.5714,-3.575,-3.5763,-3.5753,-3.5818,-3.5835,-3.5887,-3.59,-3.5914,-3.5924,-3.5909,-3.5969,-3.5974,-3.5979,-3.5998,-3.6005,-3.5918,-3.5918,-3.5918,-3.5918,0,-3.5619,-3.5651,-3.5676,-3.5711,-3.5732,-3.5766,-3.5781,-3.5801,-3.5805,-3.5817,-3.586,-3.5882,-3.5916,-3.5928,-3.5931,-3.5981,-3.5974,-3.5967,-3.5948,-3.5988,-3.6005,-3.6013,-3.592,-3.592,-3.5919,-3.5919,0,0,-3.5668,-3.571,-3.5719,-3.5735,-3.5767,-3.5792,-3.5827,-3.586,-3.5878,-3.5904,-3.5933,-3.5978,-3.5971,-3.599,-3.5996,-3.6019,-3.6062,-3.6009,-3.601,-3.6018,-3.6119,-3.6124,-3.6132,-3.6061,-3.6062,-3.6063,-3.6116,0,-3.5715,-3.5777,-3.5787,-3.584,-3.5871,-3.5872,-3.5902,-3.5925,-3.5938,-3.5966,-3.598,-3.6012,-3.6,-3.6012,-3.6036,-3.6052,-3.6082,-3.6048,-3.6089,-3.609,-3.6081,-3.6142,-3.6147,-3.6196,-3.6123,-3.6125,-3.6126,0,-3.5778,-3.5806,-3.5863,-3.5892,-3.5905,-3.5932,-3.5965,-3.5991,-3.6018,-3.6026,-3.6049,-3.6052,-3.6089,-3.607,-3.6121,-3.6098,-3.6116,-3.6126,-3.6128,-3.6132,-3.6109,-3.6146,-3.6212,-3.6219,-3.6137,-3.6136,-3.6135,0,-3.5808,-3.586,-3.5901,-3.5916,-3.5951,-3.597,-3.5986,-3.6012,-3.6032,-3.6061,-3.6074,-3.6106,-3.6124,-3.6149,-3.6162,-3.6146,-3.6213,-3.6194,-3.6221,-3.622,-3.6234,-3.6232,-3.6302,-3.6246,-3.6246,-3.6246,-3.6245,0,-3.5859,-3.5894,-3.5916,-3.5941,-3.5981,-3.5993,-3.6032,-3.6047,-3.6071,-3.6099,-3.6103,-3.613,-3.6145,-3.6174,-3.6184,-3.6226,-3.6234,-3.6242,-3.6244,-3.6241,-3.624,-3.6252,-3.6249,-3.6248,-3.6247,-3.6247,-3.6246,0,-3.5899,-3.5915,-3.596,-3.5991,-3.5999,-3.6027,-3.6054,-3.6079,-3.6092,-3.6129,-3.6138,-3.616,-3.6195,-3.621,-3.6253,-3.626,-3.6308,-3.6308,-3.6299,-3.63,-3.6325,-3.6322,-3.6405,-3.6416,-3.6352,-3.6353,-3.6353,0,-3.593,-3.5957,-3.5991,-3.6011,-3.6028,-3.6059,-3.608,-3.6094,-3.6115,-3.6149,-3.6171,-3.6206,-3.6235,-3.6292,-3.6311,-3.6345,-3.6345,-3.6372,-3.635,-3.6347,-3.6346,-3.6344,-3.6347,-3.6375,-3.6376,-3.6377,-3.6377,0,-3.5984,-3.5991,-3.6021,-3.6054,-3.6079,-3.6106,-3.6132,-3.6148,-3.6166,-3.6191,-3.6227,-3.625,-3.6295,-3.633,-3.6365,-3.6382,-3.6383,-3.6384,-3.6392,-3.6389,-3.6383,-3.6387,-3.6309,-3.6382,-3.6381,-3.6381,-3.6381,-3.6381,-3.602,-3.6045,-3.6073,-3.6107,-3.6129,-3.6154,-3.6179,-3.6197,-3.6227,-3.6265,-3.6271,-3.631,-3.6339,-3.6386,-3.6405,-3.6436,-3.6429,-3.6441,-3.6443,-3.6446,-3.6448,-3.6378,-3.6442,-3.6442,-3.6442,-3.6442,-3.6442,0,-3.6074,-3.6093,-3.6124,-3.6161,-3.6188,-3.6188,-3.6217,-3.624,-3.6274,-3.6301,-3.633,-3.6373,-3.6408,-3.6431,-3.6466,-3.6487,-3.6488,-3.6496,-3.6494,-3.6498,-3.6451,-3.6441,-3.6494,-3.6494,-3.6494,-3.6494,-3.6494,-3.6494,-3.6105,-3.6147,-3.6158,-3.6212,-3.623,-3.6269,-3.6286,-3.631,-3.6331,-3.6378,-3.6408,-3.6423,-3.6449,-3.6487,-3.6519,-3.6525,-3.6538,-3.6546,-3.6552,-3.6507,-3.6501,-3.6496,-3.6487,-3.6549,-3.6549,-3.6596,-3.6597,-3.6597]},{"header":{"parameterUnit":"m.s-1","parameterCategory":1,"la1":30.2991,"la2":30.254,"lo1":-89.0895,"lo2":-89.0444,"dy":0.0017,"dx":0.0017,"nx":28,"ny":28,"refTime":"2025-12-22T03:00:00:Z","depth":0,"parameterNumber":3,"parameterNumberName":"V-component_of_WINDS"},"data":[0,0,0,0,0,0,0,0,0,0,0,0,0,0,0,0,0,0,0,0,0,0,0,0,0,0,0,0,0,0,0,0,0,0,0,0,0,0,0,0,0,0,0,0,0,0,0,0,0,0,0,0,0,0,0,0,0,0,1.0073,1.0074,0,1.0156,1.0157,1.0158,1.0246,1.0247,1.0248,1.025,1.0332,1.0333,1.0334,0,0,0,0,0,0,0,0,0,0,0,0,0,0.999,0.9991,1.0073,1.0074,1.0075,1.0156,1.0157,1.0158,1.0246,1.0247,1.0249,1.025,1.0332,1.0333,1.0334,0,0,0,0,0,0,0,0,0,0,0,0,0,1.0045,0.9992,1.0073,1.0128,1.0134,1.0156,1.0157,1.0158,1.0245,1.0247,1.0249,1.0251,1.0332,1.0333,1.0335,1.0307,0,0,1.0339,1.034,0,0,0,0,0,0,0,0,1.0042,1.0048,1.0119,1.0125,1.0131,1.0193,1.0158,1.0208,1.0245,1.0203,1.025,1.0252,1.0284,1.029,1.0301,1.0311,1.0314,1.0339,1.034,1.0341,1.0341,0,0,0,0,0,0,0,1.0038,1.0045,1.0106,1.012,1.0128,1.0149,1.0159,1.0168,1.0232,1.0207,1.0214,1.0222,1.0288,1.0299,1.0304,1.0315,1.0339,1.0341,1.0342,1.0342,1.0309,1.0308,0,0,0,0,0,0,1.0026,1.0041,1.0103,1.0108,1.009,1.0149,1.016,1.0171,1.0232,1.0243,1.0221,1.0226,1.0296,1.0302,1.0307,1.0281,1.0341,1.0342,1.0343,1.0311,1.0309,1.0307,0,0,0,0,0,0,1.0023,1.003,1.01,1.0076,1.0087,1.0149,1.016,1.0172,1.0183,1.0243,1.0254,1.0221,1.0297,1.0305,1.0307,1.0285,1.0343,1.0345,1.0313,1.0311,1.0308,1.0226,0,0,0,0,0,0,1.0021,1.0029,1.0019,1.0076,1.0088,1.0098,1.0159,1.0172,1.0186,1.0194,1.0246,1.0256,1.03,1.0304,1.0309,1.0288,1.0346,1.0316,1.0312,1.0309,1.0231,1.0221,1.0212,0,0,0,0,0,1.0017,0.9991,1.0018,1.0025,1.0077,1.0097,1.0104,1.0155,1.0184,1.0175,1.0213,1.0255,1.0286,1.0304,1.0309,1.0289,1.0317,1.0313,1.0309,1.0235,1.0223,1.0212,0,0,0,0,0,0,0.9929,1.0,1.003,1.0021,1.0052,1.0111,1.0101,1.0139,1.0162,1.0169,1.0231,1.0241,1.0237,1.0263,1.0281,1.0267,1.0308,1.0305,1.025,1.0238,1.0229,1.0223,1.0347,0,0,0,0,0,0.9908,0.9919,0.998,0.9967,0.9981,1.0038,1.0049,1.0086,1.012,1.0134,1.0172,1.0203,1.0221,1.0231,1.025,1.0235,1.0249,1.0224,1.0214,1.0206,1.0203,1.02,1.019,1.0294,1.0294,1.0294,0,0,0.9866,0.9906,0.9909,0.995,0.9979,0.9989,1.0049,1.0056,1.0064,1.0134,1.014,1.0169,1.0209,1.0203,1.0202,1.0224,1.0178,1.0201,1.0194,1.0196,1.0195,1.0185,1.0176,1.0291,1.0291,1.0292,0,0,0.9795,0.9825,0.9819,0.9847,0.989,0.9929,0.9927,0.9981,1.0004,1.001,1.0064,1.0074,1.0102,1.0129,1.0146,1.0088,1.0127,1.0092,1.0043,1.0039,1.0031,1.0024,1.0005,0.9997,1.0088,1.0088,1.0088,0,0.9736,0.9754,0.981,0.9816,0.9833,0.9898,0.9893,0.9917,0.9963,0.9974,0.9998,1.0037,1.0068,1.0071,1.0057,1.0068,1.0069,1.0087,1.0027,1.0021,1.0015,0.9998,0.999,1.0084,1.0084,1.0085,1.0085,0,0.9681,0.9693,0.9682,0.9728,0.9744,0.9743,0.98,0.981,0.9846,0.9882,0.9889,0.9929,0.9958,0.9961,0.9995,0.997,0.9982,1.0016,1.0059,1.0,0.9985,0.9979,1.0077,1.0079,1.008,1.0081,0,0,0.9555,0.9634,0.9629,0.9651,0.9705,0.9715,0.9718,0.9749,0.9756,0.9787,0.9792,0.9815,0.9848,0.9867,0.9906,0.9902,0.9856,0.9937,0.9939,0.9922,0.9832,0.9807,0.9798,0.9882,0.9881,0.988,0.9829,0,0.9494,0.9505,0.9557,0.9552,0.9565,0.9628,0.9631,0.9665,0.9699,0.9715,0.9753,0.9769,0.981,0.9822,0.9822,0.9861,0.9839,0.9866,0.9888,0.9888,0.9878,0.979,0.9763,0.9713,0.9823,0.9822,0.9821,0,0.9424,0.9452,0.9449,0.9505,0.9512,0.9514,0.9548,0.9561,0.9601,0.9627,0.965,0.9693,0.9701,0.9741,0.9754,0.9771,0.9783,0.9804,0.9804,0.9809,0.9852,0.9793,0.9698,0.969,0.9812,0.9813,0.9814,0,0.9334,0.9371,0.9375,0.9392,0.9457,0.9457,0.9484,0.9526,0.9542,0.9571,0.9582,0.961,0.9626,0.9648,0.9699,0.9723,0.9706,0.9749,0.9728,0.9727,0.9722,0.9722,0.9628,0.9728,0.9728,0.9728,0.9728,0,0.9262,0.9258,0.9337,0.9339,0.9337,0.9397,0.9393,0.9426,0.9463,0.9474,0.953,0.9538,0.9604,0.962,0.966,0.9666,0.9672,0.9693,0.9704,0.9689,0.9686,0.9698,0.9704,0.9726,0.9727,0.9727,0.9727,0,0.9161,0.9214,0.9223,0.9284,0.9299,0.9295,0.9348,0.9353,0.9392,0.9405,0.9411,0.9471,0.9493,0.9546,0.9582,0.9609,0.9605,0.9623,0.9591,0.9598,0.9575,0.9577,0.9486,0.9479,0.9581,0.958,0.9579,0,0.9112,0.9111,0.9173,0.9185,0.921,0.9227,0.9244,0.9303,0.9319,0.9366,0.9365,0.9393,0.9418,0.945,0.9497,0.9525,0.9546,0.9513,0.9551,0.9537,0.9548,0.9548,0.9549,0.9504,0.9503,0.9502,0.9501,0,0.9019,0.9046,0.9069,0.9101,0.912,0.9148,0.9179,0.9185,0.9253,0.9267,0.9292,0.9311,0.9349,0.9376,0.9412,0.944,0.9482,0.9489,0.9486,0.9471,0.9453,0.9464,0.957,0.949,0.9491,0.9492,0.9493,0.9493,0.8944,0.8947,0.8992,0.9016,0.9046,0.9075,0.9084,0.9124,0.9146,0.9182,0.9216,0.9237,0.9279,0.9332,0.9358,0.9376,0.9397,0.9391,0.9391,0.9389,0.9383,0.9449,0.9382,0.9382,0.9383,0.9383,0.9383,0,0.8856,0.8889,0.891,0.8953,0.8973,0.9012,0.9049,0.9062,0.9081,0.9117,0.9141,0.917,0.9197,0.9247,0.9278,0.9283,0.9303,0.9289,0.929,0.9296,0.9361,0.9362,0.9273,0.9273,0.9273,0.9273,0.9273,0.9273,0.8813,0.8821,0.8853,0.8877,0.891,0.8932,0.895,0.8977,0.9007,0.9037,0.906,0.9093,0.9135,0.917,0.9197,0.9211,0.9221,0.9201,0.9221,0.9281,0.9291,0.9301,0.9302,0.9202,0.9202,0.9155,0.9155,0.9154]}]]